| time (UTC) | temp C | wind direction | speed KPH | gust KPH | rain 1hr cm | rain 24hr cm | rain mn cm | humidity % | barometer mb |
| 20260831134516 | 22 | 200 | 16.1 | 33.8 | 0.00 | 0.00 | 0.00 | 77 | 1019.4 |
| 20260831133025 | 22 | 216 | 16.1 | 27.4 | 0.00 | 0.00 | 0.00 | 77 | 1019.6 |
| 20260831131519 | 22 | 219 | 14.5 | 30.6 | 0.00 | 0.00 | 0.00 | 76 | 1019.7 |
| 20260831130018 | 21 | 217 | 16.1 | 35.4 | 0.00 | 0.00 | 0.00 | 77 | 1019.7 |
| 20260831124536 | 22 | 212 | 17.7 | 25.7 | 0.00 | 0.00 | 0.00 | 75 | 1019.8 |
| 20260831123017 | 22 | 215 | 16.1 | 24.1 | 0.00 | 0.00 | 0.00 | 1020.0 | |
| 20260831121518 | 22 | 183 | 12.9 | 22.5 | 0.00 | 0.00 | 0.00 | 1019.8 | |
| 20260831120011 | 22 | 209 | 9.7 | 24.1 | 0.00 | 0.00 | 0.00 | 1019.8 | |
| 20260831114534 | 22 | 250 | 14.5 | 22.5 | 0.00 | 0.00 | 0.00 | 1019.8 | |
| 20260831113018 | 22 | 220 | 14.5 | 24.1 | 0.00 | 0.00 | 0.00 | 70 | 1019.9 |
| 20260831111522 | 22 | 253 | 16.1 | 29.0 | 0.00 | 0.00 | 0.00 | 71 | 1020.0 |
| 20260831110023 | 22 | 225 | 16.1 | 30.6 | 0.00 | 0.00 | 0.00 | 71 | 1020.1 |
| 20260831104528 | 21 | 270 | 20.9 | 35.4 | 0.00 | 0.00 | 0.00 | 71 | 1020.1 |
| 20260831103022 | 21 | 266 | 17.7 | 32.2 | 0.00 | 0.00 | 0.00 | 71 | 1020.1 |
| 20260831101523 | 21 | 219 | 19.3 | 37.0 | 0.00 | 0.00 | 0.00 | 71 | 1020.2 |
| 20260831100029 | 20 | 243 | 22.5 | 30.6 | 0.00 | 0.00 | 0.00 | 73 | 1020.3 |
| 20260831094526 | 20 | 253 | 16.1 | 30.6 | 0.00 | 0.00 | 0.00 | 76 | 1020.3 |
| 20260831093032 | 20 | 242 | 19.3 | 30.6 | 0.00 | 0.00 | 0.00 | 77 | 1020.3 |
| 20260831091523 | 20 | 240 | 19.3 | 29.0 | 0.00 | 0.00 | 0.00 | 78 | 1020.1 |
| 20260831090023 | 20 | 236 | 17.7 | 30.6 | 0.00 | 0.00 | 0.00 | 79 | 1020.3 |
| 20260831084531 | 19 | 241 | 17.7 | 27.4 | 0.00 | 0.00 | 0.00 | 81 | 1020.1 |
| 20260831083035 | 18 | 270 | 20.9 | 30.6 | 0.00 | 0.00 | 0.00 | 82 | 1020.1 |
| 20260831081531 | 18 | 267 | 22.5 | 30.6 | 0.00 | 0.00 | 0.00 | 83 | 1020.1 |
| 20260831080006 | 18 | 277 | 19.3 | 24.1 | 0.00 | 0.00 | 0.00 | 84 | 1020.0 |
| 20260831074510 | 18 | 272 | 17.7 | 27.4 | 0.00 | 0.00 | 0.00 | 85 | 1019.9 |
| 20260831073015 | 17 | 254 | 12.9 | 22.5 | 0.00 | 0.00 | 0.00 | 88 | 1019.7 |
| 20260831071529 | 17 | 281 | 9.7 | 14.5 | 0.00 | 0.00 | 0.00 | 90 | 1019.7 |
| 20260831070005 | 16 | 282 | 11.3 | 16.1 | 0.00 | 0.00 | 0.00 | 91 | 1019.5 |
| 20260831064507 | 16 | 275 | 9.7 | 14.5 | 0.00 | 0.00 | 0.00 | 91 | 1019.5 |
| 20260831063014 | 16 | 290 | 8.0 | 14.5 | 0.00 | 0.00 | 0.00 | 91 | 1019.5 |
| 20260831061520 | 16 | 290 | 9.7 | 14.5 | 0.00 | 0.00 | 0.00 | 90 | 1019.5 |
| 20260831060027 | 16 | 298 | 11.3 | 17.7 | 0.00 | 0.00 | 0.00 | 90 | 1019.4 |
| 20260831054507 | 16 | 286 | 11.3 | 20.9 | 0.00 | 0.00 | 0.00 | 90 | 1019.3 |
| 20260831053014 | 16 | 280 | 12.9 | 20.9 | 0.00 | 0.00 | 0.00 | 90 | 1019.4 |
| 20260831051522 | 16 | 264 | 9.7 | 19.3 | 0.00 | 0.00 | 0.00 | 89 | 1019.4 |
| 20260831050042 | 16 | 287 | 14.5 | 20.9 | 0.00 | 0.00 | 0.00 | 89 | 1019.5 |
| 20260831044531 | 16 | 285 | 12.9 | 19.3 | 0.00 | 0.00 | 0.00 | 89 | 1019.5 |
| 20260831043008 | 16 | 302 | 11.3 | 19.3 | 0.00 | 0.00 | 0.00 | 89 | 1019.5 |
| 20260831041519 | 16 | 268 | 11.3 | 20.9 | 0.00 | 0.00 | 0.00 | 90 | 1019.7 |
| 20260831040027 | 16 | 284 | 12.9 | 16.1 | 0.00 | 0.00 | 0.00 | 90 | 1019.9 |
| 20260831034529 | 16 | 277 | 9.7 | 16.1 | 0.00 | 0.00 | 0.00 | 89 | 1019.8 |
| 20260831033011 | 16 | 276 | 8.0 | 17.7 | 0.00 | 0.00 | 0.00 | 89 | 1019.8 |
| 20260831031518 | 16 | 287 | 9.7 | 14.5 | 0.00 | 0.00 | 0.00 | 89 | 1019.8 |
| 20260831030020 | 16 | 275 | 9.7 | 14.5 | 0.00 | 0.00 | 0.00 | 89 | 1019.8 |
| 20260831024533 | 17 | 274 | 11.3 | 16.1 | 0.00 | 0.00 | 0.00 | 89 | 1019.7 |
| 20260831023032 | 17 | 300 | 11.3 | 17.7 | 0.00 | 0.00 | 0.00 | 89 | 1019.7 |
| 20260831021512 | 17 | 248 | 12.9 | 20.9 | 0.00 | 0.00 | 0.00 | 89 | 1019.7 |
| 20260831020017 | 17 | 268 | 14.5 | 22.5 | 0.00 | 0.00 | 0.00 | 88 | 1019.7 |
| 20260831014524 | 17 | 288 | 12.9 | 22.5 | 0.00 | 0.00 | 0.00 | 88 | 1019.8 |
| 20260831013027 | 17 | 292 | 16.1 | 22.5 | 0.00 | 0.00 | 0.00 | 87 | 1019.7 |
| 20260831011531 | 17 | 271 | 12.9 | 24.1 | 0.00 | 0.00 | 0.00 | 87 | 1019.8 |
| 20260831010028 | 17 | 290 | 14.5 | 24.1 | 0.00 | 0.00 | 0.00 | 87 | 1019.9 |
| 20260831004523 | 18 | 270 | 14.5 | 24.1 | 0.00 | 0.00 | 0.00 | 86 | 1020.1 |
| 20260831003029 | 18 | 272 | 16.1 | 33.8 | 0.00 | 0.00 | 0.00 | 86 | 1020.0 |
| 20260831001540 | 18 | 267 | 17.7 | 27.4 | 0.00 | 0.00 | 0.00 | 85 | 1020.0 |
| 20260831000017 | 18 | 296 | 16.1 | 27.4 | 0.00 | 0.00 | 0.00 | 84 | 1019.8 |
| 20260830234537 | 18 | 304 | 17.7 | 30.6 | 0.00 | 0.00 | 0.00 | 83 | 1019.9 |
| 20260830233029 | 18 | 255 | 19.3 | 29.0 | 0.00 | 0.00 | 0.00 | 83 | 1019.9 |
| 20260830231506 | 19 | 280 | 16.1 | 25.7 | 0.00 | 0.00 | 0.00 | 83 | 1020.0 |
| 20260830230028 | 19 | 276 | 14.5 | 25.7 | 0.00 | 0.00 | 0.00 | 83 | 1020.0 |
| 20260830224526 | 19 | 272 | 20.9 | 29.0 | 0.00 | 0.00 | 0.00 | 85 | 1019.9 |
| 20260830223024 | 19 | 247 | 17.7 | 22.5 | 0.00 | 0.00 | 0.00 | 88 | 1019.9 |
| 20260830221527 | 19 | 250 | 11.3 | 19.3 | 0.00 | 0.00 | 0.00 | 89 | 1019.7 |
| 20260830220023 | 19 | 245 | 14.5 | 20.9 | 0.00 | 0.00 | 0.00 | 90 | 1019.8 |
| 20260830214512 | 19 | 246 | 14.5 | 22.5 | 0.00 | 0.00 | 0.00 | 89 | 1019.6 |
| 20260830213018 | 20 | 247 | 14.5 | 22.5 | 0.00 | 0.00 | 0.00 | 89 | 1019.5 |
| 20260830211527 | 20 | 245 | 12.9 | 24.1 | 0.00 | 0.00 | 0.00 | 89 | 1019.3 |
| 20260830210030 | 20 | 260 | 14.5 | 20.9 | 0.00 | 0.00 | 0.00 | 88 | 1019.3 |
| 20260830204512 | 20 | 237 | 14.5 | 20.9 | 0.00 | 0.00 | 0.00 | 88 | 1019.2 |
| 20260830203014 | 20 | 258 | 12.9 | 19.3 | 0.00 | 0.00 | 0.00 | 88 | 1019.0 |
| 20260830201559 | 20 | 236 | 12.9 | 22.5 | 0.00 | 0.00 | 0.00 | 87 | 1018.8 |
| 20260830200030 | 20 | 254 | 16.1 | 22.5 | 0.00 | 0.00 | 0.00 | 87 | 1018.7 |
| 20260830194534 | 20 | 242 | 11.3 | 24.1 | 0.00 | 0.00 | 0.00 | 87 | 1018.5 |
| 20260830193015 | 20 | 265 | 11.3 | 17.7 | 0.00 | 0.00 | 0.00 | 86 | 1018.5 |
| 20260830191521 | 20 | 238 | 9.7 | 19.3 | 0.00 | 0.00 | 0.00 | 86 | 1018.5 |
| 20260830190032 | 20 | 241 | 12.9 | 19.3 | 0.00 | 0.00 | 0.00 | 84 | 1018.4 |
| 20260830184533 | 21 | 237 | 9.7 | 19.3 | 0.00 | 0.00 | 0.00 | 84 | 1018.4 |
| 20260830183012 | 21 | 226 | 9.7 | 22.5 | 0.00 | 0.00 | 0.00 | 83 | 1018.6 |
| 20260830181514 | 21 | 245 | 11.3 | 24.1 | 0.00 | 0.00 | 0.00 | 83 | 1018.6 |
| 20260830180024 | 21 | 248 | 11.3 | 25.7 | 0.00 | 0.00 | 0.00 | 83 | 1018.6 |
| 20260830174530 | 21 | 233 | 11.3 | 30.6 | 0.00 | 0.00 | 0.00 | 83 | 1018.7 |
| 20260830173033 | 21 | 198 | 12.9 | 27.4 | 0.00 | 0.00 | 0.00 | 82 | 1018.6 |
| 20260830171513 | 21 | 227 | 20.9 | 29.0 | 0.00 | 0.00 | 0.00 | 82 | 1018.6 |
| 20260830170019 | 22 | 233 | 20.9 | 30.6 | 0.00 | 0.00 | 0.00 | 83 | 1018.6 |
| 20260830164529 | 22 | 196 | 16.1 | 29.0 | 0.00 | 0.00 | 0.00 | 82 | 1018.6 |
| 20260830163034 | 22 | 219 | 19.3 | 35.4 | 0.00 | 0.00 | 0.00 | 82 | 1018.6 |
| 20260830161531 | 22 | 200 | 20.9 | 33.8 | 0.00 | 0.00 | 0.00 | 81 | 1018.7 |
| 20260830160017 | 22 | 205 | 17.7 | 30.6 | 0.00 | 0.00 | 0.00 | 80 | 1018.7 |
| 20260830154524 | 22 | 215 | 16.1 | 35.4 | 0.00 | 0.00 | 0.00 | 79 | 1018.6 |
| 20260830153037 | 22 | 216 | 20.9 | 35.4 | 0.00 | 0.00 | 0.00 | 77 | 1018.6 |
| 20260830151532 | 22 | 227 | 16.1 | 30.6 | 0.00 | 0.00 | 0.00 | 78 | 1018.8 |
| 20260830150016 | 23 | 231 | 20.9 | 33.8 | 0.00 | 0.00 | 0.00 | 77 | 1018.8 |
| 20260830144534 | 23 | 237 | 17.7 | 29.0 | 0.00 | 0.00 | 0.00 | 1019.0 | |
| 20260830143028 | 22 | 185 | 17.7 | 32.2 | 0.00 | 0.00 | 0.00 | 1019.2 | |
| 20260830141508 | 22 | 233 | 22.5 | 32.2 | 0.00 | 0.00 | 0.00 | 80 | 1019.3 |
| 20260830140014 | 22 | 173 | 19.3 | 32.2 | 0.00 | 0.00 | 0.00 | 80 | 1019.4 |